Regional Weather Roundup
Issued by NWS Mobile, AL

Home | Current Version | Previous Version | Text Only | Print | Product List | Glossary On
Versions: 1 2 3 4 5 6 7 8 9 10 11 12 13 14 15 16 17 18 19 20 21 22 23 24 25 26 27 28 29 30 31 32 33 34 35 36 37 38 39 40 41 42 43 44 45 46 47 48 49 50
000
ASUS44 KMOB 252213
RWRMOB
REGIONAL WEATHER ROUNDUP
NATIONAL WEATHER SERVICE MOBILE AL
500 PM CDT MON SEP 25 2017

NOTE: "FAIR" INDICATES FEW OR NO CLOUDS BELOW 12,000 FEET WITH NO
      SIGNIFICANT WEATHER AND/OR OBSTRUCTIONS TO VISIBILITY.

  * THESE STATIONS ARE PART OF THE UNIVERSITY OF SOUTH ALABAMA
    MESONET AND ARE NOT UNDER NWS OR FAA QUALITY CONTROL.

ALZ061>064-252300-
COASTAL ALABAMA

CITY           SKY/WX    TMP DP  RH WIND       PRES   REMARKS
MOBILE REG APT CLOUDY    80  73  79 SW3       29.87S
BROOKLEY FIELD SUNNY     84  75  74 SW6       29.87S
USA CAMPUS*    NOT AVBL
DOG RIVER*     NOT AVBL


CITY           SKY/WX    TMP DP  RH WIND       PRES   REMARKS
GULF SHORES    MOSUNNY   81  74  78 E9        29.86S

$$

ALZ051>060-252300-
INTERIOR SOUTHWEST AND SOUTH CENTRAL ALABAMA

CITY           SKY/WX    TMP DP  RH WIND       PRES   REMARKS
GREENVILLE     PTSUNNY   87  65  47 NE6       29.88F
EVERGREEN      MOSUNNY   83  72  69 N6        29.88F
ATMORE*        NOT AVBL
ANDALUSIA/OPP    N/A     88  68  51 E8        29.87F
ANDALUSIA*     NOT AVBL
FLORALA APT    NOT AVBL
FLORALA*       NOT AVBL

$$

FLZ001>006-252300-
WESTERN FLORIDA PANHANDLE

CITY           SKY/WX    TMP DP  RH WIND       PRES   REMARKS
PENSACOLA      SUNNY     84  72  67 SE9       29.86F
NAS PENSACOLA  MOSUNNY   82  72  71 E12       29.86F
MILTON         PTSUNNY   84  71  65 E7        29.86F
WHTNG S FIELD  PTSUNNY   87  71  58 SE6       29.86F


CITY           SKY/WX    TMP DP  RH WIND       PRES   REMARKS
JAY*           NOT AVBL
DUKE FIELD     PTSUNNY   85  68  56 E3        29.86F
CRESTVIEW      SUNNY     86  68  54 CALM      29.88F
VALPARAISO     MOSUNNY   84  70  62 SE9       29.86F
DESTIN         SUNNY     86  70  58 SE3       29.86F

$$

MSZ076-079-252300-
INTERIOR SOUTHEAST MISSISSIPPI

CITY           SKY/WX    TMP DP  RH WIND       PRES   REMARKS
LEAKESVILLE*   NOT AVBL
AGRICOLA*      NOT AVBL

$$

MARINE OBSERVATIONS

STATION/POSITION TIME  TEMP    WIND        PRES    WAVE
                       AIR SEA DIR/SP/G            HT/PER
                 (UTC) (F)     (DEG/KT/KT) (MB)    (FT/S)
PASCAGOULA       2148   82     140/ 11/ 16 1011.0S
PETIT BOIS ISLND 2148   81     110/ 11/ 15 1011.8S
GRAND BAY        2030   80     140/ 12     1012.0S
KATRINA CUT      2130   80     120/ 14     1011.2F
CEDAR POINT      2130   82     130/ 12     1011.2F
E DAUPHIN ISLAND 2200   81     110/ 12/ 14 1010.7F
MIDDLE BAY LIGHT 2130   81     140/ 15     1011.2S
USCG MOBILE BAY  2148   83 83  170/  4/  6 1010.9F
STATE DOCKS      2148   83 82              1010.9F
MEAHER PARK      2130   81     190/  6     1010.5F
WEEKS BAY        2045   85                 1011.0F
FORT MORGAN      2148   81     120/ 13/ 16   N/A
12 S ORANGE BCH  2050   80 83  100/ 10/ 12 1010.7F   3/ 5
PENSACOLA BAY    2148   86 82              1011.4F
64 S DAUPHIN ISL 2200   81      90/  8/ 10 1010.5
67 S FORT MORGAN 2130   81     100/  8     1010.5S

$$

SELECTED LOCATIONS ACROSS THE REGION

CITY           SKY/WX    TMP DP  RH WIND       PRES   REMARKS
NEW ORLEANS    PTSUNNY   85  70  60 NE7       29.84S
GULFPORT       CLOUDY    83  72  69 SE15      29.85S
PASCAGOULA AP  CLOUDY    84  71  65 SE8       29.85F
PASCAGOULA*    NOT AVBL
HATTIESBURG    MOSUNNY   82  72  71 NE8       29.88S
LAUREL         MOSUNNY   82  70  66 NE9       29.89S
MERIDIAN       CLOUDY    79  73  82 NW3       29.91S
JACKSON        PTSUNNY   81  68  64 NE7       29.89R
MONTGOMERY     MOSUNNY   89  63  41 E6        29.88F
TROY           MOSUNNY   85  69  58 E3        29.89F
ASHFORD*       NOT AVBL
DOTHAN         MOSUNNY   87  68  52 NE6       29.91F
PANAMA CITY    RAIN      80  72  76 MISG      29.86R

$$




USA.gov is the U.S. government's official web portal to all federal, state and local government web resources and services.